Regional Weather Roundup
Issued by NWS

Home | Current Version | Previous Version | Graphics & Text | Print | Product List | Glossary On
Versions: 1 2 3 4 5 6 7 8 9 10 11 12 13 14 15 16 17 18 19 20 21 22 23 24 25 26 27 28 29 30 31 32 33 34 35 36 37 38 39 40 41 42 43 44 45 46 47 48 49 50
000
ASUS43 KDMX 220601
RWRIA

WEATHER ROUNDUP FOR IOWA
NATIONAL WEATHER SERVICE DES MOINES IA
100 AM CDT SUN APR 22 2018

NOTE: "FAIR" INDICATES FEW OR NO CLOUDS BELOW 12,000 FEET WITH NO
SIGNIFICANT WEATHER AND/OR OBSTRUCTIONS TO VISIBILITY.

* - THESE STATIONS ARE NOT NWS STATIONS...THUS NOT UNDER NWS
QUALITY CONTROL.  THEY ALSO DO NOT REPORT WEATHER SUCH
AS PRECIPITATION OR FOG.

IAZ001>003-012>014-020>022-031>034-043>046-220700-
   NORTHWEST IOWA

CITY           SKY/WX    TMP DP  RH WIND       PRES   REMARKS
CARROLL *      CLOUDY    45  34  65 E8        30.28S
DENISON *      CLOUDY    46  30  53 E12G17    30.28S
LE MARS *      CLOUDY    41  37  87 N3        30.29R
ORANGE CITY *  MOCLDY    43  39  87 E6        30.29R
SHELDON *        N/A     41  37  87 E7        30.28S
SIOUX CITY     CLOUDY    41  34  76 CALM      30.27S
6HR MIN TEMP:  41; 6HR MAX TEMP:  53;

SPENCER        CLOUDY    44  35  70 E10       30.30S
6HR MIN TEMP:  39; 6HR MAX TEMP:  44;

STORM LAKE *   CLOUDY    43  37  81 E10       30.28S
$$

IAZ055>058-069>071-079>083-090>094-220700-
   SOUTHWEST IOWA

CITY           SKY/WX    TMP DP  RH WIND       PRES   REMARKS
ATLANTIC *     CLOUDY    48  30  49 NE7       30.25S
AUDUBON *      CLOUDY    45  34  65 CALM      30.28S
CLARINDA *       N/A     50  28  43 E8G16     30.24F
COUNCIL BLFS * CLOUDY    50  30  46 E12       30.23S
CRESTON *      CLOUDY    48  32  53 NE13      30.24F
HARLAN  *      CLOUDY    48  30  49 E10       30.28F
LAMONI         CLOUDY    50  29  44 NE10      30.22F
6HR MIN TEMP:  50; 6HR MAX TEMP:  56;

RED OAK *      CLOUDY    50  30  46 NE10      30.23F
SHENANDOAH *   CLOUDY    50  30  46 NE9       30.23S
$$

IAZ047>049-059>061-072>074-084-220700-
   CENTRAL IOWA

CITY           SKY/WX    TMP DP  RH WIND       PRES   REMARKS
AMES           CLOUDY    47  33  58 E7        30.29F
6HR MIN TEMP:  47; 6HR MAX TEMP:  56;

ANKENY *       PTCLDY    50  32  50 E9G15     30.30R
BOONE *        CLOUDY    46  36  66 NE10      30.28S
CHARITON *     CLOUDY    50  30  46 E13       30.24F
DES MOINES     CLOUDY    50  32  50 E15       30.28S
6HR MIN TEMP:  50; 6HR MAX TEMP:  58;

GRINNELL*      MOCLDY    46  34  61 E12       30.29F
KNOXVILLE *    CLOUDY    48  32  53 E10       30.25F
MARSHALLTOWN   PTCLDY    46  36  68 E12       30.29F
6HR MIN TEMP:  45; 6HR MAX TEMP:  55; 6HR PCP: TRACE;

NEWTON *       CLOUDY    48  34  57 E14       30.28F
PELLA *        CLOUDY    49  33  53 E9        30.28F
$$

IAZ004>006-015-016-023>025-035-036-220700-
   NORTH CENTRAL IOWA

CITY           SKY/WX    TMP DP  RH WIND       PRES   REMARKS
ALGONA *       CLOUDY    43  36  75 E8        30.31S
CLARION *      CLOUDY    45  37  76 E8        30.30F
ESTHERVILLE    CLOUDY    34  31  88 CALM      30.32R
6HR MIN TEMP:  34; 6HR MAX TEMP:  40;

FORT DODGE *   CLOUDY    48  35  60 SE12      30.29F
MASON CITY     CLOUDY    39  35  86 E3        30.33S
6HR MIN TEMP:  37; 6HR MAX TEMP:  47;

FOREST CITY *  MOCLDY    43  34  70 E7        30.32R
IOWA FALLS *   FAIR      48  37  65 E9        30.32S
$$

IAZ007>011-017>019-026>030-037>042-050>054-066-220700-
   NORTHEAST IOWA

CITY           SKY/WX    TMP DP  RH WIND       PRES   REMARKS
CEDAR RAPIDS   FAIR      47  35  63 E8        30.30F
6HR MIN TEMP:  46; 6HR MAX TEMP:  53;

CHARLES CITY * CLOUDY    43  37  81 E5        30.34R
CLINTON *      CLOUDY    47  36  65 E14       30.32F
DECORAH *      CLOUDY    43  34  70 CALM      30.32F
DUBUQUE        CLOUDY    47  31  53 E9        30.32F
6HR MIN TEMP:  46; 6HR MAX TEMP:  52;

MONTICELLO *   CLOUDY    50  34  53 E5        30.32R
OELWEIN *      CLOUDY    46  37  71 SE5       30.34R
WATERLOO       MOCLDY    45  35  68 E7        30.32F
6HR MIN TEMP:  45; 6HR MAX TEMP:  53;

$$

IAZ064-065-067-068-078-220700-
   EAST CENTRAL IOWA

CITY           SKY/WX    TMP DP  RH WIND       PRES   REMARKS
DAVENPORT      MOCLDY    48  31  51 E10       30.32F
6HR MIN TEMP:  47; 6HR MAX TEMP:  55;

IOWA CITY      FAIR      51  32  48 E7        30.32S
6HR MIN TEMP:  51; 6HR MAX TEMP:  55;

MUSCATINE *    FAIR      52  28  40 E10G16    30.31R
QUAD CITIES    FAIR      50  22  33 E13       30.30S
6HR MIN TEMP:  50; 6HR MAX TEMP:  57;

$$

IAZ062-063-075>077-085>089-095>099-220700-
   SOUTHEAST IOWA

CITY           SKY/WX    TMP DP  RH WIND       PRES   REMARKS
BURLINGTON     CLOUDY    50  30  46 NE14      30.26F
6HR MIN TEMP:  50; 6HR MAX TEMP:  58;

FAIRFIELD *    CLOUDY    50  30  46 E14       30.26F
FORT MADISON * CLOUDY    50  34  53 NE12      30.26F
KEOKUK *       CLOUDY    50  32  50 NE10G17   30.24S
CENTERVILLE *    N/A     48  28  46 NE10      30.25S
OTTUMWA        CLOUDY    50  30  46 E13       30.26S
6HR MIN TEMP:  49; 6HR MAX TEMP:  57;

WASHINGTON *   CLOUDY    48  32  53 NE13      30.29F
$$

ABBREVIATIONS USED IN REMARKS
   TC - TEMPERATURES IN CELSIUS
  WCI - WIND CHILL INDEX
   HX - HEAT INDEX
  VSB - VISIBILITY
$$




USA.gov is the U.S. government's official web portal to all federal, state and local government web resources and services.